This is the latest recevied weather packets stored in our database for station/object F4GQK-13. If no packets are shown the sender has not sent any weather packets the latest 1 day(s).
| Time | Temp. | Humidity | Pressure | Rain* | Wind** | Luminosity | Snow |
|---|---|---|---|---|---|---|---|
| 1836274679 | 18.33° C | 86% | 1006.3 hPa | 0 mm | 0 m/s | 0 W/m² | - |
| 1836274528 | 19.44° C | 83% | 1006.2 hPa | 0 mm | 0 m/s | 0 W/m² | - |
| 1836274378 | 17.78° C | 89% | 1006.2 hPa | 0 mm | 0 m/s | 0 W/m² | - |
| 1836274229 | 19.44° C | 84% | 1006.3 hPa | 0 mm | 0 m/s | 0 W/m² | - |
| 1836274079 | 17.22° C | 90% | 1006.3 hPa | 0 mm | 0 m/s | 0 W/m² | - |
| 1778032805 | 10.56° C | 99% | 1008.2 hPa | 1.27 mm | 1.34 m/s, 336° | 0 W/m² | - |
| 1778032505 | 10.56° C | 99% | 1008.1 hPa | 1.27 mm | 0.89 m/s, 339° | 0 W/m² | - |
| 1778032204 | 10.56° C | 99% | 1008.1 hPa | 1.27 mm | 0.89 m/s, 273° | 0 W/m² | - |
| 1778031904 | 10.56° C | 99% | 1008.1 hPa | 1.02 mm | 0.89 m/s, 333° | 0 W/m² | - |
| 1778031605 | 10.56° C | 99% | 1008.2 hPa | 1.02 mm | 0.45 m/s, 334° | 0 W/m² | - |
| 1778031305 | 10.56° C | 99% | 1008.1 hPa | 0.76 mm | 0.45 m/s, 324° | 0 W/m² | - |
| 1778031004 | 10.56° C | 99% | 1008 hPa | 0.51 mm | 0.45 m/s, 325° | 0 W/m² | - |
| 1778030705 | 10.56° C | 99% | 1008.1 hPa | 0.51 mm | 0.89 m/s, 352° | 0 W/m² | - |
| 1778030405 | 10.56° C | 99% | 1008.1 hPa | 0.25 mm | 0.89 m/s, 324° | 0 W/m² | - |
| 1778030105 | 11.11° C | 99% | 1008.1 hPa | 0.51 mm | 2.24 m/s, 337° | 0 W/m² | - |
| 1778029805 | 11.11° C | 99% | 1008.1 hPa | 0.76 mm | 0.89 m/s, 3° | 0 W/m² | - |
| 1778029504 | 11.11° C | 99% | 1008.1 hPa | 0.76 mm | 0.89 m/s, 327° | 0 W/m² | - |
| 1778029206 | 11.11° C | 99% | 1008 hPa | 1.02 mm | 0.45 m/s, 294° | 0 W/m² | - |
| 1778028904 | 11.11° C | 99% | 1008.2 hPa | 1.02 mm | 0.45 m/s, 351° | 0 W/m² | - |
| 1778028605 | 11.11° C | 99% | 1008.1 hPa | 1.02 mm | 0.45 m/s, 350° | 0 W/m² | - |
| 1778028305 | 11.11° C | 99% | 1008.2 hPa | 1.02 mm | 0.89 m/s, 9° | 0 W/m² | - |
| 1778028004 | 11.11° C | 99% | 1008.1 hPa | 1.02 mm | 1.34 m/s, 351° | 0 W/m² | - |
| 1778027705 | 11.11° C | 99% | 1008.1 hPa | 1.02 mm | 0.89 m/s, 329° | 0 W/m² | - |
| 1778027404 | 11.11° C | 99% | 1008 hPa | 1.02 mm | 2.24 m/s, 300° | 0 W/m² | - |
| 1778027104 | 11.11° C | 99% | 1007.9 hPa | 1.02 mm | 0.45 m/s, 332° | 0 W/m² | - |
* Rain latest hour (hover to see other rain measurements)
** Current wind speed in m/s (hover to see current wind gust speed)